Simultaneous Nadir Overpasses (SNOs) Predictions

Prediction of SNOs between LANDSAT-8 and METOP-B Satellite Orbit:

Table of predicted SNOs for the next 14.0 days since TLE Epoch: 10/1/2022
Index Date (LANDSAT-8) Time (LANDSAT-8) Lat,Lon (LANDSAT-8) SZA (LANDSAT-8 ) Date (METOP-B) Time (METOP-B) Lat,Lon (METOP-B) SZA (METOP-B ) Distance(km) Time Diff (sec)
1 10/03/2022 03:37:11 -81.12, -14.26 92.64 10/03/2022 03:36:51 -81.12, -14.09 92.63 2.88 20
2 10/03/2022 04:26:37 81.13, 153.46 87.39 10/03/2022 04:27:31 81.13, 153.47 87.42 0.39 54
3 10/05/2022 23:11:25 -81.12, 52.18 91.54 10/05/2022 23:11:16 -81.12, 52.25 91.53 1.21 9
4 10/06/2022 00:00:51 81.13,-140.13 88.49 10/06/2022 00:01:56 81.13,-140.22 88.51 1.65 65
5 10/08/2022 17:56:13 81.09, -49.51 89.47 10/08/2022 17:55:02 81.09, -49.63 89.43 2.01 71
6 10/08/2022 18:45:39 -81.11, 118.48 90.47 10/08/2022 18:45:41 -81.12, 118.54 90.46 1.07 2
7 10/11/2022 13:30:25 81.09, 17.00 90.56 10/11/2022 13:29:25 81.10, 16.95 90.53 0.77 60
8 10/11/2022 14:19:51 -81.12,-174.99 89.38 10/11/2022 14:20:04 -81.13,-174.85 89.35 2.45 13
9 10/14/2022 09:04:37 81.11, 83.73 91.67 10/14/2022 09:03:48 81.11, 83.85 91.66 2.13 49



Historial Predications of SNOs between LANDSAT-8 and METOP-B
